Location: Doschendorf
(50.0069°N, 11.0602°E)
Time: 15:29:48
(UTC+00:00)

Cosmos 1980 Rocket - Pass Details

Date: 17 November 2019
Orbit: 828 x 851 km, 71.0° (Epoch: 14 December)

Event Time Altitude Azimuth Distance (km) Brightness Sun altitude
Rises 19:49:32 0° 253° (WSW) 3,401 5.9 -41.2°
Reaches altitude 10° 19:52:28 10° 267° (W) 2,473 5.2 -41.6°
Enters shadow 19:55:04 20° 292° (WNW) 1,872 4.5 -42.0°
